| time (UTC) | temp F | wind direction | speed knots | gust knots | rain 1hr in | rain 24hr in | rain mn in | humidity % | barometer mb |
| 20260507054503 | 49 | 0 | 0.0 | 0.0 | 0.00 | 0.00 | 0.00 | 94 | 1010.0 |
| 20260507053003 | 50 | 96 | 0.9 | 3.5 | 0.00 | 0.00 | 0.00 | 94 | 1009.8 |
| 20260507051503 | 51 | 113 | 2.6 | 6.1 | 0.00 | 0.00 | 0.00 | 94 | 1009.5 |
| 20260507050003 | 51 | 119 | 2.6 | 6.1 | 0.00 | 0.00 | 0.00 | 94 | 1009.5 |
| 20260507044503 | 51 | 105 | 2.6 | 5.2 | 0.00 | 0.00 | 0.00 | 94 | 1009.5 |
| 20260507043003 | 51 | 123 | 1.7 | 5.2 | 0.00 | 0.00 | 0.00 | 94 | 1010.0 |
| 20260507041503 | 51 | 119 | 2.6 | 3.5 | 0.00 | 0.00 | 0.00 | 94 | 1010.1 |
| 20260507040003 | 51 | 122 | 2.6 | 6.1 | 0.00 | 0.00 | 0.00 | 93 | 1010.3 |
| 20260507034503 | 51 | 118 | 2.6 | 5.2 | 0.00 | 0.00 | 0.00 | 93 | 1010.6 |
| 20260507033003 | 51 | 108 | 2.6 | 5.2 | 0.00 | 0.00 | 0.00 | 93 | 1010.3 |
| 20260507031503 | 51 | 115 | 1.7 | 5.2 | 0.00 | 0.00 | 0.00 | 92 | 1010.5 |
| 20260507030003 | 51 | 122 | 2.6 | 5.2 | 0.00 | 0.00 | 0.00 | 92 | 1010.4 |
| 20260507024503 | 52 | 129 | 2.6 | 6.1 | 0.00 | 0.00 | 0.00 | 92 | 1010.3 |
| 20260507023003 | 52 | 125 | 2.6 | 6.1 | 0.00 | 0.00 | 0.00 | 91 | 1010.6 |
| 20260507021503 | 52 | 122 | 2.6 | 5.2 | 0.00 | 0.00 | 0.00 | 91 | 1010.6 |
| 20260507020003 | 52 | 112 | 2.6 | 5.2 | 0.00 | 0.00 | 0.00 | 91 | 1010.7 |
| 20260507014503 | 52 | 124 | 2.6 | 6.1 | 0.00 | 0.00 | 0.00 | 90 | 1010.6 |
| 20260507013003 | 52 | 128 | 2.6 | 6.1 | 0.00 | 0.00 | 0.00 | 90 | 1010.9 |
| 20260507011503 | 52 | 120 | 1.7 | 3.5 | 0.00 | 0.00 | 0.00 | 89 | 1010.9 |
| 20260507010003 | 53 | 122 | 1.7 | 5.2 | 0.00 | 0.00 | 0.00 | 89 | 1011.1 |
| 20260507004503 | 53 | 108 | 1.7 | 5.2 | 0.00 | 0.00 | 0.00 | 88 | 1011.2 |
| 20260507003003 | 53 | 129 | 2.6 | 6.1 | 0.00 | 0.00 | 0.00 | 87 | 1011.2 |
| 20260507001503 | 53 | 121 | 2.6 | 6.1 | 0.00 | 0.00 | 0.00 | 87 | 1011.3 |
| 20260507000003 | 53 | 119 | 2.6 | 5.2 | 0.00 | 0.00 | 0.00 | 87 | 1011.4 |
| 20260506234503 | 54 | 124 | 2.6 | 3.5 | 0.00 | 0.00 | 0.00 | 87 | 1011.4 |
| 20260506233003 | 54 | 125 | 2.6 | 5.2 | 0.00 | 0.00 | 0.00 | 86 | 1011.2 |
| 20260506231503 | 54 | 118 | 1.7 | 3.5 | 0.00 | 0.00 | 0.00 | 86 | 1011.6 |
| 20260506230004 | 54 | 133 | 2.6 | 5.2 | 0.00 | 0.00 | 0.00 | 86 | 1011.7 |
| 20260506224503 | 54 | 129 | 2.6 | 5.2 | 0.00 | 0.00 | 0.00 | 85 | 1011.6 |
| 20260506223003 | 54 | 122 | 1.7 | 5.2 | 0.00 | 0.00 | 0.00 | 85 | 1011.5 |
| 20260506221504 | 54 | 145 | 2.6 | 5.2 | 0.00 | 0.00 | 0.00 | 84 | 1011.5 |
| 20260506220003 | 55 | 120 | 2.6 | 7.8 | 0.00 | 0.00 | 0.00 | 83 | 1011.7 |
| 20260506214503 | 55 | 124 | 3.5 | 7.0 | 0.00 | 0.00 | 0.00 | 83 | 1011.7 |
| 20260506213003 | 55 | 128 | 3.5 | 7.0 | 0.00 | 0.00 | 0.00 | 83 | 1011.6 |
| 20260506211503 | 56 | 127 | 3.5 | 9.6 | 0.00 | 0.00 | 0.00 | 81 | 1011.5 |
| 20260506210003 | 56 | 133 | 3.5 | 9.6 | 0.00 | 0.00 | 0.00 | 79 | 1011.8 |
| 20260506204503 | 57 | 130 | 4.3 | 12.2 | 0.00 | 0.00 | 0.00 | 78 | 1011.6 |
| 20260506203003 | 57 | 128 | 4.3 | 11.3 | 0.00 | 0.00 | 0.00 | 77 | 1011.3 |
| 20260506201503 | 58 | 118 | 4.3 | 9.6 | 0.00 | 0.00 | 0.00 | 76 | 1011.4 |
| 20260506200003 | 58 | 138 | 5.2 | 11.3 | 0.00 | 0.00 | 0.00 | 74 | 1011.3 |
| 20260506194503 | 59 | 133 | 5.2 | 11.3 | 0.00 | 0.00 | 0.00 | 72 | 1011.3 |
| 20260506193003 | 59 | 136 | 3.5 | 9.6 | 0.00 | 0.00 | 0.00 | 71 | 1011.0 |
| 20260506191503 | 60 | 151 | 4.3 | 9.6 | 0.00 | 0.00 | 0.00 | 68 | 1011.1 |
| 20260506190003 | 61 | 143 | 4.3 | 13.0 | 0.00 | 0.00 | 0.00 | 67 | 1010.9 |
| 20260506184503 | 62 | 146 | 5.2 | 9.6 | 0.00 | 0.00 | 0.00 | 64 | 1010.7 |
| 20260506183003 | 64 | 116 | 4.3 | 11.3 | 0.00 | 0.00 | 0.00 | 63 | 1010.9 |
| 20260506181503 | 64 | 123 | 5.2 | 13.0 | 0.00 | 0.00 | 0.00 | 60 | 1010.9 |
| 20260506180004 | 65 | 145 | 5.2 | 12.2 | 0.00 | 0.00 | 0.00 | 58 | 1011.0 |
| 20260506174503 | 65 | 119 | 5.2 | 13.0 | 0.00 | 0.00 | 0.00 | 57 | 1010.9 |
| 20260506173003 | 66 | 132 | 5.2 | 11.3 | 0.00 | 0.00 | 0.00 | 56 | 1010.9 |
| 20260506171503 | 66 | 125 | 5.2 | 14.8 | 0.00 | 0.00 | 0.00 | 56 | 1011.0 |
| 20260506170003 | 67 | 145 | 5.2 | 12.2 | 0.00 | 0.00 | 0.00 | 56 | 1011.1 |
| 20260506164503 | 67 | 136 | 6.1 | 13.0 | 0.00 | 0.00 | 0.00 | 58 | 1011.1 |
| 20260506163003 | 68 | 145 | 5.2 | 12.2 | 0.00 | 0.00 | 0.00 | 56 | 1010.9 |
| 20260506161503 | 69 | 144 | 5.2 | 11.3 | 0.00 | 0.00 | 0.00 | 56 | 1010.7 |
| 20260506160003 | 69 | 138 | 5.2 | 12.2 | 0.00 | 0.00 | 0.00 | 58 | 1011.2 |
| 20260506154503 | 69 | 140 | 5.2 | 12.2 | 0.00 | 0.00 | 0.00 | 58 | 1011.0 |
| 20260506153003 | 69 | 123 | 4.3 | 9.6 | 0.00 | 0.00 | 0.00 | 56 | 1011.3 |
| 20260506151503 | 67 | 156 | 5.2 | 12.2 | 0.00 | 0.00 | 0.00 | 61 | 1011.5 |
| 20260506150003 | 70 | 136 | 5.2 | 13.0 | 0.00 | 0.00 | 0.00 | 56 | 1011.6 |
| 20260506144503 | 67 | 116 | 4.3 | 11.3 | 0.00 | 0.00 | 0.00 | 60 | 1011.8 |
| 20260506143003 | 69 | 128 | 4.3 | 11.3 | 0.00 | 0.00 | 0.00 | 56 | 1012.0 |
| 20260506141503 | 70 | 125 | 4.3 | 9.6 | 0.00 | 0.00 | 0.00 | 56 | 1012.1 |
| 20260506140003 | 71 | 128 | 4.3 | 13.0 | 0.00 | 0.00 | 0.00 | 56 | 1012.4 |
| 20260506134503 | 67 | 122 | 3.5 | 9.6 | 0.00 | 0.00 | 0.00 | 59 | 1012.6 |
| 20260506133003 | 68 | 125 | 4.3 | 9.6 | 0.00 | 0.00 | 0.00 | 59 | 1012.6 |
| 20260506131503 | 70 | 121 | 4.3 | 9.6 | 0.00 | 0.00 | 0.00 | 58 | 1012.6 |
| 20260506130004 | 70 | 127 | 3.5 | 12.2 | 0.00 | 0.00 | 0.00 | 60 | 1012.6 |
| 20260506124503 | 67 | 113 | 4.3 | 9.6 | 0.00 | 0.00 | 0.00 | 62 | 1012.8 |
| 20260506123003 | 67 | 124 | 2.6 | 9.6 | 0.00 | 0.00 | 0.00 | 61 | 1013.0 |
| 20260506121503 | 66 | 124 | 3.5 | 7.0 | 0.00 | 0.00 | 0.00 | 61 | 1013.2 |
| 20260506120003 | 67 | 149 | 3.5 | 9.6 | 0.00 | 0.00 | 0.00 | 59 | 1013.5 |
| 20260506114503 | 67 | 147 | 3.5 | 9.6 | 0.00 | 0.00 | 0.00 | 57 | 1013.5 |
| 20260506113003 | 66 | 156 | 3.5 | 9.6 | 0.00 | 0.00 | 0.00 | 61 | 1013.5 |
| 20260506111503 | 69 | 104 | 2.6 | 7.8 | 0.00 | 0.00 | 0.00 | 52 | 1013.7 |
| 20260506110004 | 68 | 138 | 3.5 | 9.6 | 0.00 | 0.00 | 0.00 | 55 | 1013.9 |
| 20260506104503 | 69 | 192 | 2.6 | 7.0 | 0.00 | 0.00 | 0.00 | 53 | 1014.0 |
| 20260506103003 | 65 | 151 | 2.6 | 6.1 | 0.00 | 0.00 | 0.00 | 61 | 1014.0 |
| 20260506101503 | 67 | 134 | 2.6 | 7.0 | 0.00 | 0.00 | 0.00 | 59 | 1013.9 |
| 20260506100003 | 64 | 140 | 2.6 | 6.1 | 0.00 | 0.00 | 0.00 | 63 | 1014.1 |
| 20260506094503 | 66 | 138 | 1.7 | 5.2 | 0.00 | 0.00 | 0.00 | 62 | 1014.1 |
| 20260506093003 | 65 | 156 | 2.6 | 7.8 | 0.00 | 0.00 | 0.00 | 65 | 1014.2 |
| 20260506091503 | 65 | 172 | 2.6 | 7.0 | 0.00 | 0.00 | 0.00 | 69 | 1014.2 |
| 20260506090003 | 63 | 137 | 2.6 | 7.0 | 0.00 | 0.00 | 0.00 | 72 | 1014.3 |
| 20260506084503 | 62 | 113 | 2.6 | 7.0 | 0.00 | 0.00 | 0.00 | 74 | 1014.1 |
| 20260506083003 | 60 | 133 | 2.6 | 6.1 | 0.00 | 0.00 | 0.00 | 76 | 1014.4 |
| 20260506081503 | 60 | 175 | 2.6 | 5.2 | 0.00 | 0.00 | 0.00 | 77 | 1014.4 |
| 20260506073003 | 57 | 134 | 1.7 | 3.5 | 0.00 | 0.00 | 0.00 | 85 | 1014.7 |
| 20260506071503 | 56 | 130 | 1.7 | 3.5 | 0.00 | 0.00 | 0.00 | 89 | 1014.6 |
| 20260506061503 | 50 | 113 | 0.9 | 3.5 | 0.00 | 0.00 | 0.00 | 97 | 1014.2 |